| time (UTC) | temp F | wind direction | speed knots | gust knots | rain 1hr in | rain 24hr in | rain mn in | humidity % | barometer mb |
| 20260509105057 | 60 | 360 | 5.2 | 10.4 | 0.00 | 0.00 | 0.00 | 67 | 1020.3 |
| 20260509104557 | 60 | 360 | 6.1 | 10.4 | 0.00 | 0.00 | 0.00 | 68 | 1020.4 |
| 20260509104057 | 60 | 360 | 4.3 | 9.6 | 0.00 | 0.00 | 0.00 | 67 | 1020.4 |
| 20260509103559 | 60 | 360 | 4.3 | 10.4 | 0.00 | 0.00 | 0.00 | 69 | 1020.4 |
| 20260509103103 | 60 | 360 | 5.2 | 10.4 | 0.00 | 0.00 | 0.00 | 69 | 1020.5 |
| 20260509102559 | 59 | 360 | 3.5 | 10.4 | 0.00 | 0.00 | 0.00 | 72 | 1020.6 |
| 20260509102057 | 59 | 360 | 4.3 | 10.4 | 0.00 | 0.00 | 0.00 | 72 | 1020.6 |
| 20260509101558 | 59 | 360 | 7.0 | 11.3 | 0.00 | 0.00 | 0.00 | 69 | 1020.6 |
| 20260509101057 | 59 | 360 | 6.1 | 11.3 | 0.00 | 0.00 | 0.00 | 69 | 1020.6 |
| 20260509100557 | 59 | 360 | 3.5 | 9.6 | 0.00 | 0.00 | 0.00 | 71 | 1020.6 |
| 20260509100058 | 58 | 360 | 5.2 | 9.6 | 0.00 | 0.00 | 0.00 | 72 | 1020.7 |
| 20260509095600 | 58 | 360 | 2.6 | 10.4 | 0.00 | 0.00 | 0.00 | 75 | 1020.7 |
| 20260509095057 | 58 | 360 | 6.1 | 10.4 | 0.00 | 0.00 | 0.00 | 72 | 1020.8 |
| 20260509094557 | 58 | 360 | 6.1 | 10.4 | 0.00 | 0.00 | 0.00 | 72 | 1020.8 |
| 20260509094056 | 58 | 360 | 5.2 | 10.4 | 0.00 | 0.00 | 0.00 | 73 | 1020.9 |
| 20260509093557 | 57 | 360 | 2.6 | 9.6 | 0.00 | 0.00 | 0.00 | 72 | 1020.9 |
| 20260509093057 | 57 | 360 | 4.3 | 9.6 | 0.00 | 0.00 | 0.00 | 74 | 1020.9 |
| 20260509092557 | 57 | 360 | 3.5 | 8.7 | 0.00 | 0.00 | 0.00 | 74 | 1020.8 |
| 20260509092057 | 57 | 360 | 3.5 | 8.7 | 0.00 | 0.00 | 0.00 | 75 | 1020.8 |
| 20260509091557 | 57 | 360 | 4.3 | 8.7 | 0.00 | 0.00 | 0.00 | 73 | 1020.8 |
| 20260509091058 | 56 | 360 | 4.3 | 8.7 | 0.00 | 0.00 | 0.00 | 74 | 1020.8 |
| 20260509090557 | 56 | 360 | 4.3 | 8.7 | 0.00 | 0.00 | 0.00 | 73 | 1020.8 |
| 20260509090109 | 56 | 360 | 5.2 | 8.7 | 0.00 | 0.00 | 0.00 | 74 | 1020.9 |
| 20260509085557 | 56 | 360 | 3.5 | 7.8 | 0.00 | 0.00 | 0.00 | 75 | 1020.8 |
| 20260509085059 | 56 | 360 | 2.6 | 7.8 | 0.00 | 0.00 | 0.00 | 76 | 1020.8 |
| 20260509084604 | 56 | 360 | 3.5 | 7.8 | 0.00 | 0.00 | 0.00 | 77 | 1020.8 |
| 20260509084057 | 55 | 360 | 3.5 | 8.7 | 0.00 | 0.00 | 0.00 | 77 | 1020.8 |
| 20260509083556 | 55 | 360 | 6.1 | 9.6 | 0.00 | 0.00 | 0.00 | 75 | 1020.8 |
| 20260509083100 | 55 | 360 | 4.3 | 9.6 | 0.00 | 0.00 | 0.00 | 77 | 1020.9 |
| 20260509082557 | 55 | 360 | 4.3 | 9.6 | 0.00 | 0.00 | 0.00 | 76 | 1020.9 |
| 20260509082100 | 55 | 360 | 3.5 | 9.6 | 0.00 | 0.00 | 0.00 | 77 | 1020.9 |
| 20260509081557 | 55 | 360 | 4.3 | 9.6 | 0.00 | 0.00 | 0.00 | 77 | 1020.8 |
| 20260509081057 | 55 | 360 | 2.6 | 9.6 | 0.00 | 0.00 | 0.00 | 78 | 1020.8 |
| 20260509080556 | 54 | 360 | 3.5 | 9.6 | 0.00 | 0.00 | 0.00 | 79 | 1020.8 |
| 20260509075556 | 54 | 360 | 2.6 | 7.8 | 0.00 | 0.00 | 0.00 | 80 | 1020.8 |
| 20260509075056 | 54 | 360 | 1.7 | 7.8 | 0.00 | 0.00 | 0.00 | 81 | 1020.7 |
| 20260509074556 | 53 | 360 | 2.6 | 7.8 | 0.00 | 0.00 | 0.00 | 83 | 1020.7 |
| 20260509074058 | 53 | 0 | 1.7 | 7.0 | 0.00 | 0.00 | 0.00 | 83 | 1020.8 |
| 20260509073557 | 53 | 360 | 2.6 | 7.0 | 0.00 | 0.00 | 0.00 | 83 | 1020.8 |
| 20260509073056 | 53 | 360 | 2.6 | 7.0 | 0.00 | 0.00 | 0.00 | 83 | 1020.8 |
| 20260509072600 | 52 | 360 | 2.6 | 5.2 | 0.00 | 0.00 | 0.00 | 83 | 1020.8 |
| 20260509072057 | 52 | 360 | 1.7 | 4.3 | 0.00 | 0.00 | 0.00 | 85 | 1020.9 |
| 20260509071559 | 52 | 360 | 2.6 | 4.3 | 0.00 | 0.00 | 0.00 | 86 | 1020.9 |
| 20260509071058 | 52 | 360 | 0.9 | 3.5 | 0.00 | 0.00 | 0.00 | 86 | 1020.8 |
| 20260509070558 | 51 | 360 | 1.7 | 3.5 | 0.00 | 0.00 | 0.00 | 86 | 1020.8 |
| 20260509070058 | 51 | 360 | 1.7 | 3.5 | 0.00 | 0.00 | 0.00 | 87 | 1020.8 |
| 20260509065557 | 51 | 360 | 1.7 | 4.3 | 0.00 | 0.00 | 0.00 | 87 | 1020.8 |
| 20260509065057 | 51 | 360 | 0.9 | 4.3 | 0.00 | 0.00 | 0.00 | 87 | 1020.8 |
| 20260509064556 | 51 | 360 | 2.6 | 4.3 | 0.00 | 0.00 | 0.00 | 88 | 1020.9 |
| 20260509064057 | 51 | 360 | 0.9 | 3.5 | 0.00 | 0.00 | 0.00 | 88 | 1020.7 |
| 20260509063557 | 50 | 360 | 0.9 | 3.5 | 0.00 | 0.00 | 0.00 | 88 | 1020.7 |
| 20260509063103 | 50 | 360 | 0.9 | 3.5 | 0.00 | 0.00 | 0.00 | 88 | 1020.7 |
| 20260509062557 | 50 | 360 | 0.9 | 3.5 | 0.00 | 0.00 | 0.00 | 89 | 1020.7 |
| 20260509062057 | 50 | 360 | 0.9 | 3.5 | 0.00 | 0.00 | 0.00 | 89 | 1020.6 |
| 20260509061558 | 50 | 360 | 0.9 | 3.5 | 0.00 | 0.00 | 0.00 | 90 | 1020.5 |
| 20260509061056 | 50 | 360 | 0.9 | 3.5 | 0.00 | 0.00 | 0.00 | 90 | 1020.5 |
| 20260509060601 | 50 | 360 | 1.7 | 3.5 | 0.00 | 0.00 | 0.00 | 90 | 1020.6 |
| 20260509060101 | 50 | 0 | 0.9 | 3.5 | 0.00 | 0.00 | 0.00 | 90 | 1020.6 |
| 20260509055556 | 49 | 360 | 1.7 | 3.5 | 0.00 | 0.00 | 0.00 | 90 | 1020.6 |
| 20260509055101 | 49 | 360 | 0.9 | 2.6 | 0.00 | 0.00 | 0.00 | 90 | 1020.6 |
| 20260509054611 | 49 | 0 | 0.0 | 2.6 | 0.00 | 0.00 | 0.00 | 91 | 1020.6 |
| 20260509054057 | 49 | 360 | 1.7 | 2.6 | 0.00 | 0.00 | 0.00 | 91 | 1020.6 |
| 20260509053601 | 49 | 360 | 0.9 | 2.6 | 0.00 | 0.00 | 0.00 | 91 | 1020.6 |
| 20260509053135 | 49 | 360 | 1.7 | 2.6 | 0.00 | 0.00 | 0.00 | 91 | 1020.6 |
| 20260509052559 | 49 | 360 | 0.9 | 2.6 | 0.00 | 0.00 | 0.00 | 91 | 1020.6 |
| 20260509052056 | 49 | 0 | 0.9 | 3.5 | 0.00 | 0.00 | 0.00 | 91 | 1020.6 |
| 20260509051603 | 49 | 360 | 1.7 | 3.5 | 0.00 | 0.00 | 0.00 | 91 | 1020.5 |
| 20260509051056 | 49 | 360 | 0.9 | 3.5 | 0.00 | 0.00 | 0.00 | 91 | 1020.5 |
| 20260509050558 | 48 | 360 | 1.7 | 3.5 | 0.00 | 0.00 | 0.00 | 91 | 1020.5 |
| 20260509050100 | 48 | 360 | 1.7 | 3.5 | 0.00 | 0.00 | 0.00 | 91 | 1020.4 |
| 20260509045557 | 48 | 360 | 1.7 | 3.5 | 0.00 | 0.00 | 0.00 | 91 | 1020.4 |
| 20260509045059 | 48 | 0 | 1.7 | 3.5 | 0.00 | 0.00 | 0.00 | 91 | 1020.5 |
| 20260509044557 | 48 | 360 | 0.9 | 3.5 | 0.00 | 0.00 | 0.00 | 91 | 1020.5 |
| 20260509044100 | 48 | 360 | 0.9 | 3.5 | 0.00 | 0.00 | 0.00 | 91 | 1020.4 |
| 20260509043558 | 48 | 360 | 0.9 | 2.6 | 0.00 | 0.00 | 0.00 | 91 | 1020.4 |
| 20260509043108 | 48 | 0 | 0.0 | 0.0 | 0.00 | 0.00 | 0.00 | 91 | 1020.4 |
| 20260509042559 | 48 | 0 | 0.0 | 0.0 | 0.00 | 0.00 | 0.00 | 91 | 1020.4 |
| 20260509042056 | 48 | 0 | 0.0 | 1.7 | 0.00 | 0.00 | 0.00 | 91 | 1020.4 |
| 20260509041603 | 48 | 0 | 0.0 | 1.7 | 0.00 | 0.00 | 0.00 | 91 | 1020.4 |
| 20260509041101 | 48 | 0 | 0.0 | 2.6 | 0.00 | 0.00 | 0.00 | 91 | 1020.3 |
| 20260509040559 | 48 | 360 | 0.9 | 2.6 | 0.00 | 0.00 | 0.00 | 91 | 1020.3 |
| 20260509040105 | 48 | 360 | 0.0 | 3.5 | 0.00 | 0.00 | 0.00 | 91 | 1020.3 |
| 20260509035556 | 48 | 360 | 1.7 | 3.5 | 0.00 | 0.00 | 0.00 | 91 | 1020.2 |
| 20260509035057 | 48 | 360 | 1.7 | 3.5 | 0.00 | 0.00 | 0.00 | 91 | 1020.3 |
| 20260509034606 | 48 | 360 | 0.9 | 3.5 | 0.00 | 0.00 | 0.00 | 91 | 1020.3 |
| 20260509034056 | 48 | 360 | 1.7 | 3.5 | 0.00 | 0.00 | 0.00 | 91 | 1020.3 |
| 20260509033557 | 48 | 360 | 0.9 | 3.5 | 0.00 | 0.00 | 0.00 | 91 | 1020.3 |
| 20260509033056 | 48 | 0 | 1.7 | 3.5 | 0.00 | 0.00 | 0.00 | 91 | 1020.3 |
| 20260509032557 | 48 | 360 | 1.7 | 3.5 | 0.00 | 0.00 | 0.00 | 91 | 1020.4 |
| 20260509032056 | 48 | 360 | 1.7 | 3.5 | 0.00 | 0.00 | 0.00 | 91 | 1020.4 |
| 20260509031605 | 48 | 360 | 1.7 | 3.5 | 0.00 | 0.00 | 0.00 | 90 | 1020.5 |
| 20260509031056 | 48 | 360 | 0.9 | 2.6 | 0.00 | 0.00 | 0.00 | 91 | 1020.5 |
| 20260509030556 | 48 | 360 | 0.9 | 2.6 | 0.00 | 0.00 | 0.00 | 90 | 1020.6 |
| 20260509030059 | 48 | 360 | 0.9 | 2.6 | 0.00 | 0.00 | 0.00 | 90 | 1020.6 |
| 20260509025556 | 48 | 0 | 0.0 | 0.0 | 0.00 | 0.00 | 0.00 | 90 | 1020.7 |
| 20260509025056 | 48 | 0 | 0.0 | 0.0 | 0.00 | 0.00 | 0.00 | 90 | 1020.7 |
| 20260509024559 | 48 | 0 | 0.0 | 0.0 | 0.00 | 0.00 | 0.00 | 90 | 1020.8 |
| 20260509024057 | 48 | 0 | 0.0 | 0.0 | 0.00 | 0.00 | 0.00 | 90 | 1020.8 |
| 20260509023557 | 48 | 0 | 0.0 | 0.0 | 0.00 | 0.00 | 0.00 | 90 | 1020.7 |
| 20260509023057 | 48 | 0 | 0.0 | 0.0 | 0.00 | 0.00 | 0.00 | 90 | 1020.8 |
| 20260509022559 | 48 | 0 | 0.0 | 0.0 | 0.00 | 0.00 | 0.00 | 90 | 1020.7 |
| 20260509022057 | 48 | 0 | 0.0 | 0.0 | 0.00 | 0.00 | 0.00 | 90 | 1020.7 |
| 20260509021557 | 48 | 0 | 0.0 | 0.0 | 0.00 | 0.00 | 0.00 | 90 | 1020.8 |
| 20260509021058 | 48 | 0 | 0.0 | 0.0 | 0.00 | 0.00 | 0.00 | 90 | 1020.7 |
| 20260509020557 | 48 | 0 | 0.0 | 0.0 | 0.00 | 0.00 | 0.00 | 90 | 1020.8 |
| 20260509020056 | 48 | 0 | 0.0 | 1.7 | 0.00 | 0.00 | 0.00 | 90 | 1020.7 |
| 20260509015557 | 48 | 0 | 0.0 | 1.7 | 0.00 | 0.00 | 0.00 | 90 | 1020.7 |
| 20260509015058 | 48 | 360 | 0.9 | 1.7 | 0.00 | 0.00 | 0.00 | 90 | 1020.6 |
| 20260509014601 | 48 | 360 | 0.0 | 1.7 | 0.00 | 0.00 | 0.00 | 90 | 1020.7 |
| 20260509014057 | 48 | 0 | 0.0 | 0.0 | 0.00 | 0.00 | 0.00 | 90 | 1020.7 |
| 20260509013558 | 48 | 0 | 0.0 | 0.0 | 0.00 | 0.00 | 0.00 | 90 | 1020.6 |
| 20260509013102 | 48 | 0 | 0.0 | 1.7 | 0.00 | 0.00 | 0.00 | 90 | 1020.6 |
| 20260509012557 | 48 | 0 | 0.0 | 1.7 | 0.00 | 0.00 | 0.00 | 90 | 1020.5 |
| 20260509012100 | 48 | 0 | 0.0 | 1.7 | 0.00 | 0.00 | 0.00 | 90 | 1020.6 |
| 20260509011602 | 48 | 0 | 0.0 | 2.6 | 0.00 | 0.00 | 0.00 | 89 | 1020.5 |
| 20260509011101 | 48 | 0 | 0.0 | 2.6 | 0.00 | 0.00 | 0.00 | 89 | 1020.6 |
| 20260509010557 | 48 | 360 | 0.9 | 2.6 | 0.00 | 0.00 | 0.00 | 89 | 1020.6 |
| 20260509010058 | 48 | 360 | 0.9 | 2.6 | 0.00 | 0.00 | 0.00 | 89 | 1020.6 |
| 20260509005559 | 48 | 0 | 0.0 | 1.7 | 0.00 | 0.00 | 0.00 | 89 | 1020.6 |
| 20260509005056 | 48 | 0 | 0.0 | 1.7 | 0.00 | 0.00 | 0.00 | 89 | 1020.7 |
| 20260509004601 | 48 | 0 | 0.0 | 2.6 | 0.00 | 0.00 | 0.00 | 89 | 1020.7 |
| 20260509004057 | 48 | 0 | 0.0 | 2.6 | 0.00 | 0.00 | 0.00 | 89 | 1020.7 |
| 20260509003557 | 49 | 360 | 0.9 | 2.6 | 0.00 | 0.00 | 0.00 | 89 | 1020.6 |
| 20260509003056 | 49 | 360 | 0.0 | 1.7 | 0.00 | 0.00 | 0.00 | 89 | 1020.7 |
| 20260509002559 | 49 | 0 | 0.0 | 0.0 | 0.00 | 0.00 | 0.00 | 89 | 1020.7 |
| 20260509002057 | 49 | 0 | 0.0 | 0.0 | 0.00 | 0.00 | 0.00 | 89 | 1020.7 |
| 20260509001558 | 49 | 0 | 0.0 | 0.0 | 0.00 | 0.00 | 0.00 | 89 | 1020.7 |
| 20260509001057 | 49 | 0 | 0.0 | 0.0 | 0.00 | 0.00 | 0.00 | 88 | 1020.7 |
| 20260509000557 | 49 | 0 | 0.0 | 0.0 | 0.00 | 0.00 | 0.00 | 88 | 1020.7 |
| 20260509000059 | 49 | 0 | 0.0 | 0.0 | 0.00 | 0.00 | 0.00 | 88 | 1020.7 |
| 20260508235557 | 49 | 0 | 0.0 | 0.0 | 0.00 | 0.00 | 0.00 | 88 | 1020.6 |
| 20260508235057 | 49 | 0 | 0.0 | 0.0 | 0.00 | 0.00 | 0.00 | 88 | 1020.7 |
| 20260508234556 | 49 | 0 | 0.0 | 0.0 | 0.00 | 0.00 | 0.00 | 88 | 1020.7 |
| 20260508234057 | 49 | 0 | 0.0 | 0.0 | 0.00 | 0.00 | 0.00 | 88 | 1020.6 |
| 20260508233557 | 49 | 0 | 0.0 | 0.0 | 0.00 | 0.00 | 0.00 | 88 | 1020.6 |
| 20260508233106 | 49 | 0 | 0.0 | 0.0 | 0.00 | 0.00 | 0.00 | 88 | 1020.6 |
| 20260508232556 | 49 | 0 | 0.0 | 0.0 | 0.00 | 0.00 | 0.00 | 88 | 1020.6 |
| 20260508232056 | 49 | 0 | 0.0 | 0.9 | 0.00 | 0.00 | 0.00 | 88 | 1020.6 |
| 20260508231555 | 49 | 0 | 0.0 | 1.7 | 0.00 | 0.00 | 0.00 | 88 | 1020.7 |
| 20260508231058 | 49 | 0 | 0.0 | 1.7 | 0.00 | 0.00 | 0.00 | 88 | 1020.6 |
| 20260508230558 | 49 | 0 | 0.0 | 1.7 | 0.00 | 0.00 | 0.00 | 88 | 1020.6 |
| 20260508230106 | 49 | 360 | 0.9 | 2.6 | 0.00 | 0.00 | 0.00 | 88 | 1020.6 |
| 20260508225554 | 49 | 360 | 0.9 | 2.6 | 0.00 | 0.00 | 0.00 | 88 | 1020.6 |
| 20260508225058 | 49 | 360 | 0.9 | 1.7 | 0.00 | 0.00 | 0.00 | 88 | 1020.6 |
| 20260508224557 | 49 | 360 | 0.9 | 1.7 | 0.00 | 0.00 | 0.00 | 88 | 1020.6 |
| 20260508224059 | 49 | 0 | 0.0 | 0.0 | 0.00 | 0.00 | 0.00 | 88 | 1020.6 |
| 20260508223557 | 49 | 0 | 0.0 | 0.0 | 0.00 | 0.00 | 0.00 | 88 | 1020.7 |
| 20260508223056 | 49 | 0 | 0.0 | 0.0 | 0.00 | 0.00 | 0.00 | 87 | 1020.7 |
| 20260508222558 | 49 | 0 | 0.0 | 0.0 | 0.00 | 0.00 | 0.00 | 87 | 1020.8 |
| 20260508222057 | 49 | 0 | 0.0 | 0.0 | 0.00 | 0.00 | 0.00 | 87 | 1020.8 |
| 20260508221612 | 49 | 0 | 0.0 | 0.0 | 0.00 | 0.00 | 0.00 | 87 | 1020.8 |
| 20260508221057 | 49 | 0 | 0.0 | 0.0 | 0.00 | 0.00 | 0.00 | 87 | 1020.8 |
| 20260508220557 | 49 | 0 | 0.0 | 0.0 | 0.00 | 0.00 | 0.00 | 87 | 1020.8 |
| 20260508220058 | 49 | 0 | 0.0 | 0.0 | 0.00 | 0.00 | 0.00 | 86 | 1020.8 |
| 20260508215556 | 49 | 0 | 0.0 | 0.0 | 0.00 | 0.00 | 0.00 | 86 | 1020.7 |
| 20260508215057 | 49 | 0 | 0.0 | 0.0 | 0.00 | 0.00 | 0.00 | 86 | 1020.8 |
| 20260508214606 | 49 | 0 | 0.0 | 0.0 | 0.00 | 0.00 | 0.00 | 86 | 1020.7 |
| 20260508214057 | 49 | 0 | 0.0 | 0.0 | 0.00 | 0.00 | 0.00 | 86 | 1020.8 |
| 20260508213557 | 49 | 0 | 0.0 | 0.0 | 0.00 | 0.00 | 0.00 | 86 | 1020.8 |
| 20260508213057 | 49 | 0 | 0.0 | 0.0 | 0.00 | 0.00 | 0.00 | 86 | 1020.8 |
| 20260508212556 | 49 | 0 | 0.0 | 0.0 | 0.00 | 0.00 | 0.00 | 86 | 1020.8 |
| 20260508212056 | 49 | 0 | 0.0 | 0.0 | 0.00 | 0.00 | 0.00 | 86 | 1020.9 |
| 20260508211557 | 50 | 0 | 0.0 | 1.7 | 0.00 | 0.00 | 0.00 | 86 | 1020.8 |
| 20260508211057 | 50 | 0 | 0.0 | 2.6 | 0.00 | 0.00 | 0.00 | 86 | 1020.8 |
| 20260508210559 | 50 | 0 | 0.0 | 2.6 | 0.00 | 0.00 | 0.00 | 86 | 1020.8 |
| 20260508210104 | 50 | 360 | 0.0 | 1.7 | 0.00 | 0.00 | 0.00 | 86 | 1020.8 |
| 20260508205556 | 50 | 0 | 0.0 | 1.7 | 0.00 | 0.00 | 0.00 | 86 | 1020.8 |
| 20260508205057 | 50 | 360 | 0.9 | 1.7 | 0.00 | 0.00 | 0.00 | 86 | 1020.8 |
| 20260508204601 | 50 | 0 | 0.0 | 1.7 | 0.00 | 0.00 | 0.00 | 86 | 1020.7 |
| 20260508204057 | 50 | 0 | 0.0 | 1.7 | 0.00 | 0.00 | 0.00 | 86 | 1020.7 |
| 20260508203559 | 50 | 0 | 0.9 | 1.7 | 0.00 | 0.00 | 0.00 | 85 | 1020.6 |
| 20260508203103 | 50 | 360 | 0.0 | 1.7 | 0.00 | 0.00 | 0.00 | 85 | 1020.6 |
| 20260508202557 | 50 | 360 | 0.0 | 0.0 | 0.00 | 0.00 | 0.00 | 85 | 1020.7 |
| 20260508202056 | 50 | 0 | 0.0 | 0.0 | 0.00 | 0.00 | 0.00 | 85 | 1020.6 |
| 20260508201558 | 50 | 0 | 0.0 | 0.0 | 0.00 | 0.00 | 0.00 | 85 | 1020.6 |
| 20260508201057 | 50 | 0 | 0.0 | 0.0 | 0.00 | 0.00 | 0.00 | 85 | 1020.6 |
| 20260508200557 | 50 | 0 | 0.0 | 0.0 | 0.00 | 0.00 | 0.00 | 85 | 1020.5 |
| 20260508200100 | 50 | 0 | 0.0 | 0.0 | 0.00 | 0.00 | 0.00 | 85 | 1020.5 |
| 20260508195557 | 50 | 0 | 0.0 | 0.0 | 0.00 | 0.00 | 0.00 | 85 | 1020.6 |
| 20260508195057 | 50 | 0 | 0.0 | 0.0 | 0.00 | 0.00 | 0.00 | 85 | 1020.5 |
| 20260508194554 | 50 | 0 | 0.0 | 2.6 | 0.00 | 0.00 | 0.00 | 85 | 1020.6 |
| 20260508194056 | 50 | 0 | 0.0 | 2.6 | 0.00 | 0.00 | 0.00 | 84 | 1020.5 |
| 20260508193556 | 50 | 360 | 0.9 | 3.5 | 0.00 | 0.00 | 0.00 | 84 | 1020.4 |
| 20260508193112 | 51 | 360 | 0.9 | 3.5 | 0.00 | 0.00 | 0.00 | 84 | 1020.5 |
| 20260508192601 | 51 | 360 | 0.9 | 3.5 | 0.00 | 0.00 | 0.00 | 84 | 1020.5 |
| 20260508192057 | 51 | 0 | 0.9 | 2.6 | 0.00 | 0.00 | 0.00 | 83 | 1020.4 |
| 20260508191559 | 51 | 0 | 0.9 | 2.6 | 0.00 | 0.00 | 0.00 | 83 | 1020.4 |
| 20260508191056 | 51 | 360 | 0.0 | 2.6 | 0.00 | 0.00 | 0.00 | 83 | 1020.3 |
| 20260508190557 | 51 | 360 | 0.0 | 2.6 | 0.00 | 0.00 | 0.00 | 83 | 1020.3 |
| 20260508190057 | 51 | 0 | 0.0 | 2.6 | 0.00 | 0.00 | 0.00 | 83 | 1020.3 |
| 20260508185559 | 51 | 360 | 0.0 | 2.6 | 0.00 | 0.00 | 0.00 | 83 | 1020.3 |
| 20260508185056 | 51 | 0 | 0.0 | 1.7 | 0.00 | 0.00 | 0.00 | 83 | 1020.2 |
| 20260508184558 | 51 | 0 | 0.0 | 2.6 | 0.00 | 0.00 | 0.00 | 83 | 1020.2 |
| 20260508184059 | 51 | 0 | 0.0 | 2.6 | 0.00 | 0.00 | 0.00 | 83 | 1020.2 |
| 20260508183556 | 51 | 360 | 0.9 | 2.6 | 0.00 | 0.00 | 0.00 | 82 | 1020.1 |
| 20260508183055 | 51 | 0 | 0.0 | 0.9 | 0.00 | 0.00 | 0.00 | 82 | 1020.2 |
| 20260508182557 | 51 | 0 | 0.0 | 0.0 | 0.00 | 0.00 | 0.00 | 82 | 1020.1 |
| 20260508182057 | 51 | 0 | 0.0 | 1.7 | 0.00 | 0.00 | 0.00 | 82 | 1020.2 |
| 20260508181558 | 51 | 0 | 0.0 | 1.7 | 0.00 | 0.00 | 0.00 | 82 | 1020.1 |
| 20260508181057 | 52 | 0 | 0.0 | 1.7 | 0.00 | 0.00 | 0.00 | 82 | 1020.1 |
| 20260508180558 | 52 | 0 | 0.0 | 1.7 | 0.00 | 0.00 | 0.00 | 82 | 1020.1 |
| 20260508180059 | 52 | 0 | 0.0 | 1.7 | 0.00 | 0.00 | 0.00 | 82 | 1020.0 |
| 20260508175556 | 52 | 360 | 0.0 | 2.6 | 0.00 | 0.00 | 0.00 | 81 | 1020.0 |
| 20260508175057 | 52 | 0 | 0.9 | 2.6 | 0.00 | 0.00 | 0.00 | 81 | 1020.0 |
| 20260508174557 | 52 | 360 | 0.0 | 2.6 | 0.00 | 0.00 | 0.00 | 81 | 1020.0 |
| 20260508174057 | 52 | 0 | 0.0 | 2.6 | 0.00 | 0.00 | 0.00 | 81 | 1019.9 |
| 20260508173557 | 52 | 360 | 0.9 | 2.6 | 0.00 | 0.00 | 0.00 | 80 | 1020.0 |
| 20260508173054 | 52 | 360 | 0.9 | 2.6 | 0.00 | 0.00 | 0.00 | 80 | 1020.0 |
| 20260508172556 | 52 | 0 | 0.9 | 3.5 | 0.00 | 0.00 | 0.00 | 80 | 1020.0 |
| 20260508172056 | 52 | 0 | 0.0 | 3.5 | 0.00 | 0.00 | 0.00 | 80 | 1019.9 |
| 20260508171556 | 52 | 360 | 0.9 | 3.5 | 0.00 | 0.00 | 0.00 | 79 | 1019.9 |
| 20260508171059 | 52 | 0 | 0.9 | 3.5 | 0.00 | 0.00 | 0.00 | 79 | 1019.8 |
| 20260508170557 | 52 | 0 | 1.7 | 3.5 | 0.00 | 0.00 | 0.00 | 78 | 1019.8 |
| 20260508165555 | 52 | 360 | 0.9 | 4.3 | 0.00 | 0.00 | 0.00 | 78 | 1019.8 |
| 20260508165058 | 52 | 360 | 0.9 | 4.3 | 0.00 | 0.00 | 0.00 | 78 | 1019.8 |
| 20260508164556 | 52 | 360 | 1.7 | 3.5 | 0.00 | 0.00 | 0.00 | 78 | 1019.7 |
| 20260508164057 | 52 | 360 | 1.7 | 3.5 | 0.00 | 0.00 | 0.00 | 78 | 1019.8 |
| 20260508163556 | 52 | 0 | 1.7 | 3.5 | 0.00 | 0.00 | 0.00 | 78 | 1019.8 |
| 20260508163054 | 52 | 0 | 0.9 | 2.6 | 0.00 | 0.00 | 0.00 | 78 | 1019.8 |
| 20260508162556 | 52 | 0 | 0.0 | 1.7 | 0.00 | 0.00 | 0.00 | 78 | 1019.9 |
| 20260508162059 | 52 | 0 | 0.9 | 2.6 | 0.00 | 0.00 | 0.00 | 77 | 1019.8 |
| 20260508161559 | 52 | 360 | 0.0 | 3.5 | 0.00 | 0.00 | 0.00 | 77 | 1019.8 |
| 20260508161056 | 52 | 0 | 0.9 | 3.5 | 0.00 | 0.00 | 0.00 | 77 | 1019.8 |
| 20260508160558 | 52 | 0 | 0.9 | 3.5 | 0.00 | 0.00 | 0.00 | 76 | 1019.8 |
| 20260508160058 | 52 | 360 | 0.9 | 3.5 | 0.00 | 0.00 | 0.00 | 76 | 1019.8 |
| 20260508155557 | 52 | 360 | 0.9 | 4.3 | 0.00 | 0.00 | 0.00 | 76 | 1019.7 |
| 20260508155057 | 53 | 360 | 0.9 | 4.3 | 0.00 | 0.00 | 0.00 | 77 | 1019.7 |
| 20260508154600 | 53 | 360 | 2.6 | 4.3 | 0.00 | 0.00 | 0.00 | 77 | 1019.7 |
| 20260508154057 | 53 | 360 | 0.9 | 3.5 | 0.00 | 0.00 | 0.00 | 77 | 1019.7 |
| 20260508153558 | 53 | 0 | 0.0 | 3.5 | 0.00 | 0.00 | 0.00 | 77 | 1019.8 |
| 20260508153057 | 53 | 360 | 0.9 | 4.3 | 0.00 | 0.00 | 0.00 | 76 | 1019.8 |
| 20260508152557 | 53 | 360 | 1.7 | 4.3 | 0.00 | 0.00 | 0.00 | 76 | 1019.7 |
| 20260508152057 | 53 | 360 | 1.7 | 4.3 | 0.00 | 0.00 | 0.00 | 75 | 1019.7 |
| 20260508151559 | 53 | 360 | 1.7 | 4.3 | 0.00 | 0.00 | 0.00 | 75 | 1019.7 |
| 20260508151057 | 53 | 360 | 0.9 | 3.5 | 0.00 | 0.00 | 0.00 | 75 | 1019.8 |
| 20260508150557 | 53 | 360 | 1.7 | 3.5 | 0.00 | 0.00 | 0.00 | 75 | 1019.8 |
| 20260508150056 | 53 | 360 | 0.9 | 3.5 | 0.00 | 0.00 | 0.00 | 74 | 1019.7 |
| 20260508145557 | 53 | 360 | 0.9 | 4.3 | 0.00 | 0.00 | 0.00 | 74 | 1019.8 |
| 20260508145057 | 53 | 360 | 1.7 | 4.3 | 0.00 | 0.00 | 0.00 | 73 | 1019.9 |
| 20260508144557 | 53 | 360 | 1.7 | 4.3 | 0.00 | 0.00 | 0.00 | 72 | 1019.8 |
| 20260508144057 | 54 | 360 | 0.9 | 5.2 | 0.00 | 0.00 | 0.00 | 72 | 1019.8 |
| 20260508143602 | 54 | 360 | 1.7 | 5.2 | 0.00 | 0.00 | 0.00 | 72 | 1019.8 |
| 20260508143059 | 54 | 360 | 2.6 | 5.2 | 0.00 | 0.00 | 0.00 | 72 | 1019.8 |
| 20260508142556 | 54 | 360 | 1.7 | 5.2 | 0.00 | 0.00 | 0.00 | 73 | 1019.8 |
| 20260508142058 | 54 | 360 | 1.7 | 7.8 | 0.00 | 0.00 | 0.00 | 73 | 1019.8 |
| 20260508141557 | 54 | 360 | 3.5 | 7.8 | 0.00 | 0.00 | 0.00 | 72 | 1019.8 |
| 20260508141057 | 54 | 360 | 1.7 | 7.0 | 0.00 | 0.00 | 0.00 | 73 | 1019.8 |
| 20260508140557 | 54 | 360 | 1.7 | 7.0 | 0.00 | 0.00 | 0.00 | 72 | 1019.7 |
| 20260508140101 | 54 | 360 | 3.5 | 7.0 | 0.00 | 0.00 | 0.00 | 71 | 1019.8 |
| 20260508135557 | 55 | 360 | 2.6 | 5.2 | 0.00 | 0.00 | 0.00 | 71 | 1019.8 |
| 20260508135056 | 55 | 0 | 0.9 | 5.2 | 0.00 | 0.00 | 0.00 | 71 | 1019.8 |
| 20260508134558 | 55 | 360 | 2.6 | 7.0 | 0.00 | 0.00 | 0.00 | 70 | 1019.8 |
| 20260508134057 | 55 | 360 | 3.5 | 7.0 | 0.00 | 0.00 | 0.00 | 70 | 1019.8 |
| 20260508133557 | 55 | 360 | 2.6 | 7.0 | 0.00 | 0.00 | 0.00 | 69 | 1019.8 |
| 20260508133107 | 56 | 360 | 3.5 | 7.0 | 0.00 | 0.00 | 0.00 | 69 | 1019.8 |
| 20260508132556 | 56 | 360 | 1.7 | 7.8 | 0.00 | 0.00 | 0.00 | 69 | 1019.8 |
| 20260508132058 | 56 | 171 | 3.5 | 7.8 | 0.00 | 0.00 | 0.00 | 69 | 1019.8 |
| 20260508131600 | 57 | 140 | 3.5 | 7.0 | 0.00 | 0.00 | 0.00 | 68 | 1019.8 |
| 20260508131058 | 57 | 0 | 2.6 | 7.0 | 0.00 | 0.00 | 0.00 | 67 | 1019.8 |
| 20260508130558 | 57 | 360 | 1.7 | 7.0 | 0.00 | 0.00 | 0.00 | 67 | 1019.8 |
| 20260508130110 | 57 | 360 | 3.5 | 7.0 | 0.00 | 0.00 | 0.00 | 69 | 1019.9 |
| 20260508125558 | 57 | 360 | 0.0 | 7.0 | 0.00 | 0.00 | 0.00 | 69 | 1019.9 |
| 20260508125058 | 57 | 360 | 1.7 | 7.0 | 0.00 | 0.00 | 0.00 | 69 | 1020.0 |
| 20260508124558 | 57 | 0 | 0.9 | 7.0 | 0.00 | 0.00 | 0.00 | 69 | 1020.0 |
| 20260508124057 | 56 | 360 | 1.7 | 7.0 | 0.00 | 0.00 | 0.00 | 69 | 1020.1 |
| 20260508123558 | 56 | 360 | 2.6 | 7.0 | 0.00 | 0.00 | 0.00 | 70 | 1020.1 |
| 20260508123108 | 56 | 0 | 1.7 | 7.0 | 0.00 | 0.00 | 0.00 | 71 | 1020.1 |
| 20260508122557 | 56 | 360 | 2.6 | 7.8 | 0.00 | 0.00 | 0.00 | 70 | 1020.1 |
| 20260508122101 | 56 | 360 | 2.6 | 7.8 | 0.00 | 0.00 | 0.00 | 71 | 1020.1 |
| 20260508121607 | 56 | 360 | 2.6 | 7.0 | 0.00 | 0.00 | 0.00 | 72 | 1020.1 |
| 20260508121057 | 55 | 360 | 1.7 | 7.8 | 0.00 | 0.00 | 0.00 | 72 | 1020.0 |
| 20260508120557 | 55 | 360 | 4.3 | 7.8 | 0.00 | 0.00 | 0.00 | 73 | 1020.0 |
| 20260508120058 | 55 | 360 | 1.7 | 5.2 | 0.00 | 0.00 | 0.00 | 73 | 1020.0 |
| 20260508115557 | 54 | 360 | 2.6 | 5.2 | 0.00 | 0.00 | 0.00 | 74 | 1020.0 |
| 20260508115057 | 54 | 360 | 1.7 | 5.2 | 0.00 | 0.00 | 0.00 | 76 | 1020.0 |
| 20260508114556 | 53 | 360 | 0.9 | 5.2 | 0.00 | 0.00 | 0.00 | 77 | 1020.1 |
| 20260508114057 | 53 | 360 | 2.6 | 5.2 | 0.00 | 0.00 | 0.00 | 77 | 1020.1 |
| 20260508113558 | 53 | 360 | 1.7 | 5.2 | 0.00 | 0.00 | 0.00 | 77 | 1020.2 |
| 20260508113110 | 52 | 360 | 1.7 | 5.2 | 0.00 | 0.00 | 0.00 | 77 | 1020.1 |
| 20260508112557 | 52 | 360 | 2.6 | 4.3 | 0.00 | 0.00 | 0.00 | 78 | 1020.1 |
| 20260508112057 | 52 | 360 | 1.7 | 4.3 | 0.00 | 0.00 | 0.00 | 79 | 1020.1 |
| 20260508111557 | 52 | 360 | 0.9 | 4.3 | 0.00 | 0.00 | 0.00 | 79 | 1020.2 |
| 20260508111100 | 52 | 360 | 0.9 | 5.2 | 0.00 | 0.00 | 0.00 | 78 | 1020.2 |
| 20260508110557 | 52 | 360 | 2.6 | 7.0 | 0.00 | 0.00 | 0.00 | 78 | 1020.2 |
| 20260508110058 | 53 | 360 | 2.6 | 7.0 | 0.00 | 0.00 | 0.00 | 77 | 1020.2 |
| 20260508105600 | 53 | 360 | 1.7 | 5.2 | 0.00 | 0.00 | 0.00 | 77 | 1020.2 |